Location: Monrovia
(34.7865°N, 86.7139°W)
Time: 00:34:35
(UTC+00:00)

Cosmos 1328 - Pass Details

Date: 14 July 2020
Orbit: 538 x 545 km, 82.5° (Epoch: 12 August)

Event Time Altitude Azimuth Distance (km) Brightness Sun altitude
Rises 01:24:52 0° 174° (S) 2,686 7.0 -5.1°
Reaches altitude 10° 01:27:03 10° 170° (S) 1,797 6.1 -5.4°
Maximum altitude 01:30:53 51° 93° (E) 682 4.0 -6.1°
Drops below altitude 10° 01:34:44 10° 18° (NNE) 1,806 6.7 -6.8°
Sets 01:36:56 0° 13° (NNE) 2,701 7.6 -7.2°
